Wind_Speed
36 38 41 42 41 41 40 39 40 41 41 42 43 43 44 44 44 43 43 42 40 39 38 36 33 30 26 24 22 21 21 22 21 22 22 22 21 20 18 18 18 19 19 19 20 21 25 29 32 33 33 34 33 33 32 31 31 31 31 30 28 27 26 26 27 27 26 27 27 27 26 24 22 22 22 22 23 23 23 23 23 23 23 23 23 21 20
37 39 42 43 41 40 40 40 40 41 40 40 41 42 42 43 43 43 43 42 40 39 38 37 35 33 30 26 23 22 24 24 23 24 24 24 24 22 22 21 19 19 19 20 20 19 18 21 24 26 29 31 33 35 35 34 33 33 33 32 31 29 28 27 28 28 27 28 28 27 27 27 26 24 24 25 25 24 24 24 24 24 24 25 25 25 24
36 39 40 39 38 38 41 43 42 42 42 41 40 41 42 42 43 42 43 43 41 38 37 36 34 32 31 28 25 23 25 27 26 25 25 25 25 23 24 24 21 19 20 19 19 19 17 18 20 21 22 24 26 29 32 33 33 32 31 32 32 30 29 29 28 28 28 27 27 27 27 27 27 26 25 25 26 26 26 26 26 25 25 25 26 27 26
33 35 35 34 32 33 38 43 44 43 43 42 41 41 41 43 44 43 43 43 41 38 35 33 32 30 30 30 28 25 25 28 29 26 24 25 24 23 24 25 23 22 23 21 21 20 18 17 19 21 20 19 19 21 25 27 29 29 29 29 29 28 28 30 30 30 29 28 27 27 27 27 27 27 26 25 27 28 28 28 27 26 25 25 27 28 28
30 30 31 32 31 32 38 43 44 43 43 42 41 40 40 42 44 46 44 42 41 39 36 33 30 28 28 28 28 26 25 27 28 27 25 24 23 23 24 24 23 24 24 24 24 24 21 20 21 22 22 21 20 20 21 22 23 26 26 25 25 25 25 27 29 30 29 29 28 28 28 28 29 28 27 26 26 27 28 29 28 27 26 26 27 28 29
32 31 32 33 33 35 39 43 45 45 45 44 42 41 40 41 42 44 45 44 43 42 40 36 30 27 27 28 28 27 26 26 25 25 24 22 22 22 22 23 23 23 24 24 24 24 24 24 24 25 25 25 24 23 22 21 22 22 22 21 21 21 21 22 23 24 26 26 26 27 27 28 30 30 28 27 26 25 25 27 29 28 27 27 28 29 30
36 35 36 35 34 35 37 40 44 46 46 45 43 41 40 40 40 41 42 42 42 42 41 38 33 31 32 32 31 30 29 29 27 25 22 21 22 22 23 23 23 23 24 24 24 24 24 25 26 26 26 26 26 24 23 23 24 23 23 22 19 17 17 18 18 18 20 21 24 25 26 28 29 30 29 29 28 26 26 27 29 30 30 29 29 30 31
36 37 38 35 31 30 31 32 36 41 44 44 42 40 39 39 40 41 41 40 40 39 39 38 37 36 36 36 35 35 33 31 30 28 25 23 23 23 25 26 26 25 25 25 25 25 25 25 25 25 25 25 26 26 25 26 26 27 27 27 23 18 18 19 19 17 17 18 19 21 22 23 25 26 27 28 29 30 31 31 32 33 33 32 31 32 32
34 34 36 35 31 29 28 27 28 32 36 40 41 41 41 39 38 39 41 42 41 40 40 39 39 38 37 37 37 37 36 34 32 29 27 26 25 25 25 27 27 28 28 27 28 28 28 27 27 26 26 25 25 26 27 27 28 28 28 28 25 22 21 23 23 22 22 22 21 21 21 21 22 23 24 25 27 29 30 31 32 34 36 35 34 34 34
37 34 34 35 34 32 30 30 30 31 33 35 37 39 40 39 39 40 41 43 43 43 42 42 42 41 40 39 38 37 37 36 34 32 29 28 28 27 26 27 27 28 29 29 30 30 30 31 30 30 29 29 28 28 28 29 29 29 29 28 27 25 24 24 25 24 25 26 27 28 27 24 23 22 22 23 24 26 28 29 30 32 34 35 35 35 36
38 36 34 34 36 35 34 35 35 34 35 36 36 36 38 38 39 40 42 43 44 43 42 42 43 43 42 42 41 39 36 35 33 32 31 31 31 31 30 29 29 29 30 30 30 31 31 32 32 32 32 32 32 31 31 30 30 31 31 30 29 27 26 26 27 27 27 27 28 30 29 27 26 25 24 24 24 24 26 28 30 31 32 33 33 35 36
36 36 34 34 36 38 39 39 38 36 36 37 37 38 38 38 38 39 41 43 44 43 41 41 43 43 43 43 43 41 38 35 34 33 33 33 33 33 33 33 33 33 33 33 33 33 33 33 33 33 33 33 33 32 32 31 31 32 32 32 31 30 29 28 29 29 30 29 29 29 30 29 29 29 28 27 25 25 26 27 28 30 31 32 32 34 34
32 32 32 32 33 35 37 37 36 35 35 36 38 39 39 38 38 39 40 41 42 43 41 39 40 42 43 42 43 45 44 41 38 37 36 36 36 36 36 36 36 37 37 37 37 37 37 36 36 35 35 35 35 34 33 32 32 32 32 32 32 31 30 30 30 31 32 32 32 31 31 31 31 31 31 29 28 28 28 28 27 28 29 30 32 34 35
29 29 29 29 29 30 32 33 33 34 35 37 39 39 39 38 38 38 38 38 39 39 38 35 34 35 38 37 37 39 42 42 40 39 39 40 41 41 41 41 41 41 41 41 42 42 41 41 40 39 38 38 38 38 37 36 35 34 34 33 33 33 32 32 32 32 33 34 34 34 33 33 32 32 33 32 31 31 31 30 29 28 29 29 31 33 34
28 29 29 29 29 29 30 32 33 34 36 37 38 39 39 39 39 38 37 37 38 38 37 36 34 33 35 36 35 34 36 39 41 42 43 45 46 47 47 46 45 45 44 44 44 44 44 44 44 44 42 42 41 40 40 39 39 38 37 36 35 35 35 34 34 34 34 35 35 35 35 35 34 33 34 34 34 33 34 33 31 30 29 29 30 30 32
25 27 27 28 29 29 30 31 31 33 34 36 37 38 40 40 39 39 38 38 39 39 39 40 39 38 37 38 37 36 36 38 41 43 45 47 49 50 50 49 48 47 46 45 44 44 44 44 45 45 45 44 43 42 42 41 40 40 39 38 37 37 36 36 36 35 35 35 35 36 36 36 36 35 35 35 35 35 35 35 34 33 32 32 31 31 32
21 23 24 25 26 28 29 29 30 31 32 33 34 36 37 38 38 37 37 37 39 40 41 42 42 42 41 40 39 38 39 39 40 41 42 44 46 48 48 47 47 46 45 44 44 44 44 44 44 45 45 44 44 43 43 42 41 41 41 40 40 39 38 38 37 37 37 36 36 36 36 36 36 36 35 35 36 36 36 36 36 36 36 35 34 34 34
21 22 23 23 24 25 26 27 28 29 30 30 31 32 33 34 34 34 34 35 37 38 40 41 42 42 42 40 39 39 40 40 40 40 41 42 43 44 45 45 45 45 45 45 45 45 46 46 46 46 46 46 46 45 44 44 43 43 43 42 42 41 41 40 40 39 39 38 38 37 37 37 37 37 36 36 36 36 36 37 37 38 38 38 38 38 37
23 24 24 25 25 26 26 27 27 28 29 29 30 30 31 31 32 32 33 34 36 37 37 38 40 40 41 40 40 40 39 39 40 40 41 42 43 44 45 46 46 46 46 46 47 47 47 48 47 47 47 47 47 46 46 46 46 45 45 45 45 44 44 43 43 43 42 42 41 40 40 39 39 39 39 39 38 38 38 38 38 39 40 41 41 41 41
24 25 26 26 27 28 28 28 28 28 29 29 30 30 31 31 32 33 34 35 36 36 36 37 38 39 39 39 39 39 39 38 39 40 41 42 43 44 45 46 47 47 47 48 48 49 49 50 49 49 49 49 48 48 48 48 48 48 48 47 47 47 47 47 46 46 45 45 45 45 44 43 43 42 42 42 42 42 41 40 40 41 41 42 43 44 45
24 26 26 27 29 30 30 30 30 30 30 31 31 31 32 32 32 33 35 36 37 37 37 38 38 39 39 40 39 39 39 38 39 39 40 41 42 44 45 46 46 47 48 49 49 50 50 51 51 51 51 51 51 50 51 51 51 50 50 50 50 50 50 49 49 48 48 48 48 48 48 47 47 46 46 45 45 45 45 45 44 44 44 44 45 46 47
25 26 27 27 29 30 30 31 31 32 32 32 33 33 34 34 34 35 36 37 38 39 39 39 39 40 40 41 41 41 40 39 39 40 41 42 43 43 44 45 45 46 47 48 49 49 50 50 51 51 52 52 52 52 52 52 52 52 52 52 52 52 52 52 51 51 51 50 50 50 51 51 51 51 50 49 49 49 49 48 48 48 48 48 48 48 48
26 27 27 28 29 30 31 31 32 33 33 33 34 34 35 35 36 36 37 38 39 39 40 40 40 40 41 41 41 41 40 40 40 40 41 42 43 43 43 44 45 45 46 47 48 49 49 49 50 50 51 51 52 52 52 52 52 52 52 52 52 52 52 52 52 53 52 52 52 53 53 53 54 53 53 53 52 52 52 52 52 52 52 51 51 51 50
26 27 28 29 30 31 32 33 33 33 34 34 35 35 36 37 37 37 38 38 39 40 40 41 41 41 41 41 41 41 41 41 40 41 42 43 43 43 43 43 44 45 45 47 48 49 49 49 49 50 50 51 51 52 52 52 52 52 52 52 53 53 53 53 53 53 53 53 53 54 54 55 55 55 55 55 55 55 54 54 54 54 55 55 54 54 54
27 28 29 31 32 33 34 34 35 35 35 35 36 36 37 38 38 39 40 41 41 42 42 42 42 42 42 42 43 43 43 42 42 42 42 43 43 44 44 44 44 45 46 47 48 48 48 48 48 49 49 50 51 51 51 52 52 52 52 52 52 52 53 53 53 53 54 54 54 54 55 55 56 56 56 56 56 56 56 56 56 56 56 57 57 57 57
29 29 30 32 33 34 35 36 37 37 38 38 38 38 38 39 39 40 41 42 43 44 44 44 44 44 44 44 45 45 44 44 44 43 43 43 43 44 44 45 45 45 45 46 47 48 49 49 48 48 49 49 50 50 51 51 52 52 52 52 52 52 53 53 53 54 54 54 55 55 55 55 56 56 57 57 58 57 57 57 58 58 58 58 59 59 59
30 31 31 32 33 34 36 37 38 39 39 40 40 39 39 40 40 40 41 42 43 44 45 46 47 47 46 46 46 46 46 46 46 45 45 45 45 46 46 46 46 46 46 47 47 48 48 49 49 49 49 49 50 50 50 51 51 51 52 52 52 53 53 53 53 54 54 55 56 56 56 56 56 57 57 58 58 59 58 58 58 59 59 60 60 61 61
31 32 32 33 34 35 36 37 38 39 40 41 42 42 42 42 41 41 41 42 43 44 45 46 48 49 49 48 48 48 48 48 48 48 47 47 47 47 48 48 48 48 48 48 48 48 48 49 49 50 50 50 51 51 51 51 51 51 51 52 52 52 53 53 53 53 54 55 55 56 56 57 57 57 58 58 59 59 60 60 60 60 60 61 62 62 63
34 34 35 35 36 36 37 38 39 40 41 42 42 43 43 43 43 43 43 44 46 46 46 46 47 49 49 49 50 50 50 50 50 51 51 50 49 49 49 49 50 50 50 50 50 49 49 49 49 49 50 50 51 51 51 51 51 51 51 51 51 51 52 52 52 53 53 54 54 55 56 56 56 57 57 58 59 60 60 61 61 61 61 62 62 63 64
37 38 38 38 38 38 38 38 39 40 41 42 42 42 43 43 43 44 45 47 48 49 49 49 49 49 49 50 50 50 50 50 50 51 51 51 50 50 50 50 51 51 51 51 51 50 50 50 49 49 50 50 49 50 50 50 50 51 51 51 51 51 51 51 52 52 53 53 54 54 55 55 55 56 56 57 58 59 60 61 61 62 62 63 63 63 64
38 39 39 40 40 40 40 40 40 41 41 42 42 43 43 43 44 44 45 47 48 50 51 53 53 53 52 52 51 51 51 51 50 50 50 50 50 50 50 51 52 53 53 52 52 51 51 51 50 51 51 50 50 50 50 50 50 50 50 50 50 51 51 52 52 53 53 54 54 54 55 55 55 56 56 56 57 57 58 59 60 61 62 63 63 64 65
39 40 40 41 41 41 41 41 41 41 42 42 43 44 44 45 45 45 46 47 48 48 50 51 53 54 54 54 54 54 53 53 52 52 52 51 51 51 51 51 52 53 54 53 53 52 52 51 52 52 52 52 51 52 51 51 51 51 50 50 51 51 52 52 53 54 54 55 55 56 56 56 57 57 57 57 56 57 57 58 58 59 60 62 63 64 65
39 40 40 41 41 42 42 42 42 42 43 43 44 45 45 46 46 46 46 47 47 47 47 48 49 51 52 53 53 54 54 54 53 53 52 51 51 52 52 52 53 54 54 54 53 53 53 52 52 52 52 52 52 52 52 52 52 53 53 53 53 53 53 53 54 54 55 56 56 57 57 58 58 58 58 58 58 58 58 58 58 59 60 61 62 64 65
40 41 41 42 43 43 44 44 44 44 45 45 45 46 46 46 46 46 47 47 47 46 46 47 48 48 49 50 51 51 52 52 52 51 50 50 50 50 50 51 52 53 54 54 54 54 54 54 54 54 54 54 54 54 54 54 54 55 55 55 55 55 55 55 55 55 55 56 57 57 58 58 58 59 59 59 58 58 59 59 59 60 61 62 63 64 66
43 44 45 45 47 48 48 48 48 48 47 47 47 47 47 47 47 47 48 48 47 47 47 47 47 47 47 47 48 49 49 49 49 49 49 49 48 48 48 49 49 50 51 51 52 52 52 52 53 54 54 55 55 55 55 55 56 57 57 56 56 56 56 56 56 56 56 56 57 58 58 59 59 59 59 59 59 60 60 60 61 61 62 63 63 64 65
46 47 47 48 49 50 51 51 50 50 49 48 48 48 48 47 47 47 47 48 48 48 47 47 47 46 45 45 45 46 47 48 48 48 48 47 46 46 45 46 46 46 46 47 47 48 48 48 49 49 50 50 51 51 52 53 55 56 57 57 57 56 56 56 56 56 56 56 57 58 59 59 60 60 61 61 62 62 62 63 63 63 63 64 64 65 66
46 47 48 48 49 49 50 50 51 51 50 49 49 49 50 50 49 49 48 47 47 47 47 46 46 45 44 44 43 44 45 45 46 46 46 45 44 43 43 43 43 43 44 44 45 46 46 45 45 44 45 45 45 46 47 49 50 51 53 54 54 54 54 54 54 55 55 55 56 57 58 59 59 60 61 62 62 63 63 64 64 64 64 65 65 66 67
44 45 46 47 48 49 49 50 51 52 52 52 52 51 51 52 52 52 50 49 48 47 46 46 45 44 44 43 43 42 42 42 43 43 43 42 42 42 40 40 42 44 44 43 43 43 43 43 42 42 42 42 43 43 44 45 46 47 48 49 50 50 51 52 52 53 53 54 54 55 56 56 57 58 59 60 61 61 62 62 62 63 63 64 64 65 66
44 45 46 46 46 45 45 46 47 49 50 50 51 51 52 52 53 53 53 51 49 47 46 45 44 43 42 41 41 41 40 40 40 41 41 41 41 41 40 41 45 47 45 42 41 41 42 41 41 40 40 40 41 41 42 42 43 44 45 46 47 48 49 49 50 51 51 52 52 53 53 54 54 55 56 57 58 59 59 60 61 61 62 63 63 64 65
42 41 40 40 40 41 42 43 44 46 47 47 47 47 48 50 53 55 54 53 51 50 47 44 42 41 40 39 39 39 39 38 38 39 39 39 39 40 40 41 43 44 43 40 40 40 40 40 39 37 37 37 37 38 39 40 40 41 42 42 43 44 46 47 48 48 49 49 50 51 51 52 53 54 55 56 57 58 59 59 60 61 62 62 63 64 64
36 35 36 38 40 43 45 46 46 47 48 49 48 47 46 46 49 52 54 54 54 53 50 46 43 40 39 38 37 37 37 37 38 38 37 37 38 40 41 42 41 41 41 42 41 41 39 38 36 34 34 35 36 37 38 38 39 39 40 41 41 42 43 45 46 47 48 48 49 51 52 53 54 55 55 56 57 58 59 60 61 62 62 63 64 64 64
33 35 37 39 41 42 43 43 44 43 44 45 46 47 48 48 47 47 49 52 54 54 52 48 44 41 38 37 37 36 36 37 37 36 36 36 37 38 41 43 43 42 42 41 39 37 36 35 35 35 36 37 37 37 38 38 39 39 40 40 41 42 43 44 46 47 48 49 50 52 53 53 54 55 56 57 57 58 59 60 61 62 63 64 64 65 65
33 35 36 37 38 38 39 39 40 40 40 40 40 42 44 47 48 47 46 47 50 53 52 50 46 43 39 37 35 34 34 35 35 35 35 37 39 38 38 37 37 36 35 33 32 32 34 35 36 37 37 37 38 38 38 38 39 40 40 41 42 43 45 46 47 48 49 50 51 52 53 54 54 55 55 56 57 57 58 59 60 61 62 63 64 65 65
33 34 35 36 37 38 39 39 39 39 39 39 40 39 40 41 44 46 46 44 45 48 50 50 48 45 41 36 33 32 33 33 32 32 34 37 40 41 39 37 35 35 35 34 34 35 35 35 36 37 37 37 38 38 38 39 40 41 42 44 45 45 46 47 48 49 50 51 51 52 52 53 53 53 54 54 55 57 58 59 61 62 63 64 65 66 67
32 33 34 36 37 39 39 39 38 37 37 38 38 39 38 38 39 42 44 44 42 44 47 48 47 45 42 37 33 31 30 30 30 31 33 36 39 41 41 41 40 40 39 38 37 36 35 35 36 37 38 38 38 39 39 41 42 43 44 45 46 46 47 47 48 48 48 49 49 49 50 51 52 53 55 56 58 60 61 63 64 65 66 67 68 68 68
32 32 34 35 36 37 37 36 35 34 33 33 33 33 34 34 35 36 40 41 40 40 42 45 45 43 40 37 34 32 30 30 31 32 34 34 35 36 36 36 36 35 35 34 33 33 35 36 37 37 38 38 39 40 41 42 43 44 44 45 45 45 45 45 45 45 46 46 48 50 52 54 56 58 60 61 63 64 66 67 67 68 68 68 69 68 68
31 33 34 34 33 33 33 32 30 28 26 26 25 25 27 29 30 31 35 38 38 37 39 41 42 38 34 32 32 33 33 33 33 33 33 33 32 31 30 29 28 29 29 30 31 33 34 35 37 37 38 39 40 41 42 43 44 44 43 43 43 43 43 43 44 45 47 50 52 54 56 58 60 62 64 65 67 67 68 68 68 68 67 66 65 63 61
30 32 33 32 31 31 31 28 24 20 17 15 16 17 20 23 25 27 31 33 33 33 35 38 37 34 31 29 30 30 31 31 32 31 32 33 33 32 30 29 28 29 30 31 32 34 35 37 38 39 39 39 39 40 40 40 41 41 41 41 42 43 44 46 48 50 52 54 55 57 59 61 63 64 65 66 66 65 65 64 63 61 59 56 54 51 48
29 30 31 30 29 29 28 23 17 12 7 4 7 11 14 17 21 24 27 29 29 30 32 34 34 33 31 29 29 29 29 29 29 29 28 28 29 29 29 29 29 30 31 32 33 34 34 35 35 35 35 35 35 36 37 38 39 40 41 43 45 47 49 50 52 53 55 57 59 60 60 60 60 60 59 58 57 56 55 53 51 49 46 44 41 39 37
26 27 28 28 26 25 25 21 15 10 6 5 7 8 11 15 18 21 23 26 28 30 31 31 30 29 29 28 29 31 30 28 26 25 25 24 24 25 25 26 26 27 28 28 29 29 30 30 31 31 32 33 35 36 38 39 41 42 44 47 49 51 52 53 55 56 57 58 57 56 55 53 52 51 50 49 48 47 46 44 41 39 36 34 33 32 32
23 24 24 24 22 22 23 21 17 12 9 8 9 10 12 16 19 22 25 28 30 30 28 27 27 28 30 30 31 30 28 25 24 24 24 24 24 23 23 23 24 24 25 26 27 27 28 29 31 32 34 35 37 38 39 41 43 46 48 50 52 53 55 55 56 55 54 52 49 47 46 45 44 43 42 42 41 39 38 36 34 32 30 29 29 29 31
20 20 20 19 19 20 21 21 19 16 13 12 14 17 19 20 22 24 26 28 27 26 25 26 27 29 30 30 30 28 27 25 24 24 24 23 23 22 22 22 23 24 25 26 27 28 29 30 32 33 34 36 37 39 42 44 46 49 50 52 53 54 54 52 50 47 45 43 42 40 39 38 37 36 36 35 35 34 32 31 30 28 27 27 28 29 29
Wind_Direction
204 205 207 208 208 207 205 206 209 212 212 211 214 217 219 223 225 226 228 230 232 235 236 237 235 231 227 225 225 230 235 233 227 225 224 221 218 220 219 216 217 217 214 214 217 221 223 222 219 219 219 219 219 219 221 222 221 221 225 226 226 225 222 220 221 221 220 223 228 232 234 232 224 216 214 216 218 218 220 223 228 234 238 239 239 238 237
202 205 206 206 208 210 211 211 212 215 217 215 214 216 219 222 224 225 226 228 230 232 233 234 234 232 228 225 225 230 232 230 227 225 226 224 221 219 218 217 216 216 218 218 220 220 217 212 212 215 218 222 224 223 223 224 222 220 223 225 227 228 224 222 223 225 224 224 227 230 230 230 228 222 218 218 219 219 221 223 225 228 233 237 239 239 237
199 203 205 206 207 210 214 216 217 219 221 220 218 218 219 222 225 226 226 226 227 229 230 230 232 232 231 229 229 233 232 227 225 225 225 225 223 219 218 219 219 218 220 220 219 221 219 212 209 213 218 221 223 223 223 224 224 223 224 226 228 229 227 224 225 227 227 227 228 228 228 229 229 225 223 224 224 222 222 223 225 226 229 234 238 240 239
197 197 201 204 205 209 214 217 220 221 222 222 221 220 221 223 225 226 227 226 228 229 230 229 230 233 234 231 232 235 233 224 220 221 223 223 222 221 219 219 219 220 222 222 220 222 226 222 217 221 228 227 221 220 220 220 220 220 222 225 228 230 229 228 229 231 230 230 230 230 231 233 233 231 229 229 229 228 227 226 227 227 229 233 238 241 241
201 199 200 203 203 206 212 216 218 220 222 223 223 222 223 223 224 226 227 228 229 230 231 231 233 236 238 236 234 233 229 221 217 217 220 223 225 225 223 221 220 223 227 226 225 226 229 230 226 227 234 237 232 228 226 224 222 220 221 224 226 228 230 229 230 230 230 231 233 234 235 237 237 238 238 236 232 231 232 233 232 230 230 233 238 241 242
198 200 202 205 205 207 211 213 214 216 219 222 223 222 222 223 225 226 228 230 231 232 234 237 236 236 238 238 236 231 226 220 217 216 217 221 227 229 229 227 224 225 229 230 230 230 231 233 232 230 232 236 239 238 236 236 233 227 222 222 224 227 230 230 230 230 230 231 233 234 233 233 234 236 238 236 233 233 235 237 237 236 234 235 238 241 242
191 195 199 203 207 210 212 214 214 215 218 221 223 223 223 224 226 228 229 231 232 232 235 237 235 234 237 238 236 232 228 224 224 226 226 226 229 232 233 233 230 229 231 233 235 237 237 238 239 238 237 237 241 242 238 235 234 229 226 227 231 236 239 240 238 235 232 232 234 236 234 233 233 234 234 232 231 234 241 247 247 246 242 238 237 240 243
188 191 197 201 204 206 209 212 214 216 219 223 226 227 228 228 229 231 231 231 231 231 231 233 232 232 234 237 237 236 236 234 234 236 237 236 235 235 235 235 234 234 234 235 238 241 242 243 244 245 246 245 245 247 245 240 238 236 238 240 242 242 245 249 251 247 240 236 238 241 242 242 240 239 238 236 235 239 246 251 252 251 247 241 237 237 240
196 190 195 199 199 199 203 207 210 213 218 223 226 229 231 231 232 234 234 234 234 233 232 233 233 232 233 235 237 238 239 241 241 242 241 239 237 235 235 235 235 236 236 237 237 239 242 244 244 245 247 247 247 249 250 249 247 246 248 250 250 248 249 254 259 260 256 251 247 247 248 250 249 247 246 245 243 243 246 247 248 248 246 241 236 235 236
212 201 197 198 200 203 206 210 213 215 218 222 225 228 231 233 233 234 236 237 237 236 236 236 236 236 235 235 237 240 242 243 244 244 241 237 234 233 233 235 237 237 238 238 238 239 240 242 244 245 245 245 246 247 249 251 252 253 254 256 256 254 252 255 259 261 260 259 256 255 256 256 255 253 251 249 249 249 248 246 245 244 242 239 237 236 235
222 213 208 205 205 210 216 219 222 223 225 228 230 232 234 235 234 235 236 238 239 238 238 238 239 239 239 238 239 242 244 245 244 242 238 234 232 232 232 233 235 238 240 241 241 241 241 242 244 246 247 248 247 247 248 249 252 254 256 257 257 256 253 253 255 256 257 257 256 256 256 258 259 257 254 253 253 252 250 246 244 242 241 239 238 237 237
234 229 227 222 217 217 221 225 228 231 233 236 238 239 240 239 237 237 237 238 241 241 240 240 240 240 241 241 240 240 241 241 241 239 237 233 230 230 231 232 233 234 237 240 241 242 242 242 243 245 248 249 250 249 249 249 250 252 254 256 257 257 255 253 254 255 255 256 255 253 253 254 257 259 259 257 255 253 252 250 247 246 245 243 242 241 240
240 241 241 239 234 229 229 232 235 238 241 243 244 244 243 240 239 239 238 239 241 242 241 241 240 239 239 240 239 236 235 236 236 237 238 236 233 231 231 233 234 234 235 236 239 241 242 242 242 243 245 247 250 251 251 250 250 250 251 253 255 256 255 254 254 255 256 257 257 255 254 253 253 256 259 259 255 254 255 255 253 250 249 247 245 244 243
235 238 241 242 240 238 237 238 239 240 242 242 243 244 243 241 239 238 238 239 240 242 241 240 239 237 235 235 236 236 234 235 236 238 240 241 241 240 237 236 237 238 239 238 238 240 242 243 244 244 245 246 248 250 251 252 252 251 251 251 252 254 254 253 253 253 254 255 256 257 256 255 253 252 255 256 256 254 253 255 255 253 251 249 246 245 245
233 235 236 237 236 236 237 237 237 238 238 238 239 241 241 241 240 239 238 238 239 241 241 241 241 239 235 234 236 238 236 235 236 238 240 243 245 246 244 243 242 243 244 244 244 243 244 245 246 247 247 247 247 247 249 250 251 252 251 251 251 252 252 253 252 252 252 253 254 255 256 255 254 252 251 252 254 254 253 253 254 254 253 252 250 248 247
229 232 234 234 234 233 234 235 235 236 236 235 236 238 239 241 242 242 241 240 239 241 243 244 244 243 239 237 237 237 236 235 236 238 241 243 245 247 248 248 247 247 248 248 248 247 246 246 247 248 248 247 247 246 246 247 248 250 251 251 251 251 251 252 252 252 252 252 253 253 254 254 254 252 251 250 251 253 253 253 253 253 253 254 254 253 252
226 228 230 231 232 231 231 232 233 234 234 233 232 234 236 239 241 241 240 239 239 240 241 243 244 244 243 241 239 236 236 236 237 238 240 242 244 247 248 249 249 249 248 247 246 246 245 244 244 245 246 246 246 246 246 246 246 247 249 250 251 252 253 253 254 254 253 253 253 253 254 255 255 254 253 252 251 252 253 254 254 254 254 254 255 257 257
229 229 229 230 230 230 230 230 231 232 232 231 230 231 233 235 237 238 238 236 236 236 237 239 240 242 242 242 240 238 237 237 237 238 238 239 241 243 245 247 247 247 246 246 245 244 244 243 242 242 243 244 245 245 246 247 247 247 248 249 251 253 254 255 256 257 257 256 255 255 255 256 256 256 256 254 254 253 252 253 253 253 253 254 255 256 257
231 233 233 233 234 234 233 232 232 232 232 232 231 231 233 234 237 238 238 236 235 234 234 235 236 237 238 238 238 237 236 236 236 236 237 238 239 240 241 243 244 245 245 246 245 245 245 245 244 243 243 244 245 246 246 247 247 248 248 249 251 252 254 255 256 258 259 260 259 258 257 257 258 258 259 258 257 256 255 254 254 253 253 253 254 255 256
231 233 235 236 237 238 238 237 237 236 237 237 236 236 236 236 237 238 239 239 239 237 236 235 235 236 237 238 238 237 236 235 235 235 236 236 237 238 239 241 242 244 245 246 246 246 246 247 247 247 246 246 247 247 247 247 247 248 249 250 250 251 253 254 255 256 258 260 261 261 261 260 259 259 259 260 260 259 258 257 257 255 254 253 253 253 254
233 234 235 235 237 238 239 240 241 240 240 240 241 241 240 239 238 238 238 240 241 241 239 238 237 238 239 240 240 240 238 236 235 235 235 236 236 237 238 239 240 242 243 244 245 246 247 247 248 248 249 249 249 249 249 249 249 249 249 250 251 251 252 253 254 255 256 257 259 261 262 262 262 260 260 259 260 260 260 259 258 258 256 255 253 252 252
244 243 241 240 240 240 240 241 242 242 243 243 243 242 242 241 240 239 239 239 240 241 241 240 240 239 239 240 240 240 240 238 237 236 235 236 236 236 237 238 239 240 241 243 244 245 246 247 247 248 249 249 249 249 249 250 250 251 251 251 251 251 252 252 253 254 254 255 257 258 260 262 262 262 262 261 260 260 259 259 259 258 258 257 256 255 253
251 251 250 249 248 247 245 244 243 243 244 245 245 246 246 245 244 243 243 243 243 244 244 244 244 243 243 242 242 242 241 240 238 237 237 236 237 237 237 238 238 239 240 241 243 244 245 246 247 248 248 248 249 249 249 250 250 250 251 251 251 251 251 252 252 253 254 254 255 256 257 259 260 261 262 262 262 261 260 260 259 259 259 258 258 257 256
254 254 254 254 253 253 252 251 250 249 248 247 247 248 249 249 249 249 248 247 247 247 247 247 247 248 248 247 247 246 245 244 242 240 240 239 239 239 240 240 239 239 240 241 242 242 243 244 245 246 247 248 249 249 250 250 250 250 251 252 252 253 253 253 253 253 253 253 253 254 255 256 257 259 260 261 262 262 262 261 261 260 260 260 259 259 258
261 260 259 258 257 257 256 256 255 254 253 252 251 251 251 251 251 251 252 251 251 250 250 249 249 249 249 250 250 249 248 248 246 245 244 244 243 243 243 243 243 243 243 243 244 244 244 244 245 245 247 248 249 249 250 251 251 252 252 252 253 253 254 254 254 254 254 254 254 253 253 254 255 256 257 259 260 260 261 261 261 260 260 260 260 260 259
266 264 262 261 260 260 259 259 258 257 255 254 252 252 252 251 250 251 251 252 252 253 253 253 252 250 249 249 250 250 250 249 249 249 248 248 247 247 247 246 246 245 245 245 246 246 247 247 247 247 248 248 249 249 250 250 251 251 252 252 253 253 254 254 255 255 255 255 255 255 254 254 254 255 255 256 257 258 259 260 260 260 260 260 259 259 259
271 270 268 266 265 263 263 262 262 261 260 259 257 256 255 254 253 252 251 250 250 251 251 252 252 252 251 251 251 252 252 252 252 252 251 251 251 251 250 250 250 249 248 248 248 248 248 248 249 249 250 250 250 251 251 251 252 252 252 252 252 253 253 253 254 255 255 256 256 256 256 256 255 255 255 256 256 257 258 259 259 259 259 259 259 259 258
272 271 270 269 267 266 266 265 264 263 263 263 262 262 261 260 258 256 254 252 252 251 250 250 250 250 251 251 251 251 252 252 252 252 252 252 253 253 253 253 253 252 252 251 251 251 251 250 250 251 251 251 252 252 253 253 254 254 254 254 254 254 254 254 254 254 254 255 255 255 255 256 256 256 256 256 256 257 257 258 258 259 260 260 260 259 259
274 272 271 270 269 268 267 267 266 265 264 263 263 262 262 261 260 257 254 253 253 252 251 250 249 249 249 250 250 250 250 251 251 252 252 253 254 255 256 256 255 255 254 253 253 253 252 252 252 252 252 252 252 253 254 254 255 255 256 256 256 257 256 256 256 256 256 255 255 255 255 255 255 255 255 255 255 256 256 257 257 258 259 259 260 260 260
275 274 273 272 271 269 268 267 266 265 264 264 263 263 262 261 260 258 256 254 252 252 251 250 250 250 250 250 250 249 249 249 250 251 252 253 254 255 256 257 257 257 256 256 255 254 254 254 253 253 253 253 253 253 254 255 256 256 257 257 258 258 258 258 257 257 257 257 257 256 256 256 256 256 255 255 255 255 256 256 256 257 257 258 258 259 259
275 274 274 273 272 271 270 269 268 267 266 265 264 263 262 261 260 259 258 257 255 254 253 252 252 252 252 252 250 249 248 248 248 249 250 251 253 254 255 256 257 258 258 258 258 257 257 256 255 255 255 255 255 255 255 255 255 256 257 258 259 259 259 259 258 258 257 257 257 257 258 258 258 258 257 257 257 257 256 257 257 257 257 258 258 258 258
274 273 272 271 270 270 270 269 269 268 267 266 265 263 262 261 260 259 259 258 257 256 255 254 253 253 252 251 251 251 250 248 248 248 249 251 252 253 254 254 255 256 257 258 258 258 258 258 257 257 256 256 256 256 256 256 256 257 257 258 259 260 261 260 260 259 259 258 258 258 258 259 259 259 259 259 259 259 259 258 258 258 258 259 259 259 259
275 274 273 272 270 269 269 268 268 268 267 267 266 264 263 262 260 259 258 258 258 257 256 255 254 253 252 251 251 251 251 250 249 248 249 250 251 251 251 251 252 253 254 255 256 256 257 257 257 257 257 257 256 257 257 257 258 258 258 259 260 260 261 261 261 261 261 261 260 260 260 260 260 260 260 261 261 261 261 260 260 260 260 260 260 261 261
276 275 274 273 271 270 268 268 268 267 266 266 266 265 263 261 259 257 256 256 257 257 256 255 254 253 252 252 252 252 252 252 251 250 249 249 249 249 248 249 250 251 252 253 253 254 254 255 256 257 257 257 258 258 258 258 259 259 259 259 259 260 260 261 261 262 262 263 263 262 262 262 262 262 262 262 262 262 262 262 262 262 262 262 262 262 262
277 276 275 274 273 272 271 270 269 268 266 264 263 263 261 260 258 257 256 255 255 255 256 256 256 255 253 252 252 252 252 252 252 252 251 249 248 248 248 249 250 251 252 253 253 254 254 255 256 257 258 258 259 259 259 259 259 259 259 259 259 259 260 260 261 261 262 263 263 263 263 263 263 263 263 264 264 264 264 265 265 265 264 264 264 264 264
280 279 277 276 275 274 273 272 271 269 267 264 262 260 258 257 257 256 256 255 255 254 254 255 255 255 255 254 252 252 251 251 251 251 251 251 250 250 249 250 251 252 253 254 255 255 255 256 256 257 258 259 259 260 260 260 260 259 259 259 259 260 260 261 261 261 262 262 263 263 264 264 264 265 265 265 265 266 266 266 266 266 266 266 265 265 265
283 282 280 279 278 276 275 273 271 269 267 265 261 259 257 257 256 255 254 253 253 253 253 252 253 253 253 253 252 251 250 250 250 250 250 250 250 250 250 250 251 252 253 254 255 255 255 256 256 257 259 259 260 260 260 260 260 260 260 259 260 260 261 261 262 262 262 263 263 264 264 265 265 266 266 266 266 267 267 267 267 267 267 267 267 267 267
286 284 283 281 279 277 275 273 271 269 266 264 262 259 257 256 255 254 252 250 249 249 249 250 250 250 250 251 251 251 250 249 249 249 249 248 248 247 248 250 252 252 252 252 253 255 256 256 257 258 259 260 260 260 261 261 261 260 260 260 261 261 262 262 263 263 264 264 265 265 265 266 266 267 267 267 268 268 268 268 269 269 269 270 270 269 269
288 287 286 284 282 279 277 275 272 270 267 264 261 258 255 253 251 250 249 247 246 246 246 246 246 246 247 248 249 249 248 247 247 247 247 247 244 243 245 250 252 250 248 249 251 253 254 256 257 258 258 259 260 261 261 262 262 261 261 262 262 262 263 263 263 264 264 265 265 266 266 266 267 267 267 268 269 269 270 270 271 271 271 272 272 272 271
291 289 288 286 285 283 281 278 276 273 271 267 263 259 255 251 248 247 246 245 243 243 243 243 243 243 243 244 246 247 247 247 246 245 246 245 243 241 245 251 251 246 244 246 249 251 253 254 255 255 256 258 259 261 262 263 263 264 264 263 263 263 263 263 263 264 264 265 265 266 267 268 268 269 269 270 270 271 272 272 273 273 273 273 273 273 273
293 292 291 290 289 287 284 281 277 274 271 268 264 259 255 251 248 246 244 242 241 240 240 240 240 240 240 240 241 243 245 246 245 244 244 245 242 240 243 249 252 250 248 248 249 250 251 252 252 254 257 259 261 263 264 264 265 265 265 265 265 265 265 265 265 265 266 266 267 268 268 269 270 271 272 272 273 273 274 274 274 275 275 275 275 275 274
297 297 297 296 295 293 290 285 281 276 271 267 263 257 253 249 247 245 242 240 238 237 236 236 236 236 237 237 237 239 241 244 245 244 243 243 242 242 245 247 249 249 248 246 245 246 248 251 253 257 259 261 262 264 265 266 266 265 265 265 265 266 266 267 267 268 269 269 270 271 271 272 272 273 274 274 275 275 275 275 276 276 276 276 276 276 276
301 301 301 301 301 299 297 293 286 279 273 268 263 258 252 247 244 242 241 239 237 235 233 232 231 232 233 234 235 237 239 242 243 243 242 240 239 242 244 243 241 241 243 243 244 247 251 254 256 259 260 262 263 264 265 265 266 266 266 267 267 268 268 269 270 270 271 272 273 273 274 275 275 276 276 276 277 277 277 277 277 277 277 277 276 276 276
306 305 305 305 304 302 300 296 290 283 275 269 264 259 254 248 243 239 236 236 235 233 230 228 228 228 229 231 233 235 238 240 243 245 246 243 240 241 242 243 244 247 250 252 252 254 255 256 258 259 261 262 263 263 264 265 267 267 268 269 269 270 270 271 272 273 273 274 275 276 276 277 277 277 277 277 277 277 277 277 277 277 276 276 276 276 276
310 309 309 309 307 305 302 297 291 285 278 271 265 260 254 247 241 236 232 230 231 231 228 225 224 225 226 228 231 234 237 239 240 241 241 241 241 242 245 248 251 253 253 252 251 252 254 257 259 261 261 262 263 264 266 268 269 270 270 271 271 272 273 274 275 275 276 277 277 277 278 278 278 277 277 277 277 276 276 276 276 275 275 275 275 274 274
315 315 316 315 313 311 308 301 294 287 279 271 265 259 250 241 236 232 227 224 225 226 223 221 220 221 223 226 230 232 234 234 233 233 234 237 238 239 242 244 246 247 248 248 249 252 255 258 260 261 261 262 264 267 268 270 271 271 272 272 273 274 275 275 276 276 276 277 277 277 277 277 277 277 276 276 276 275 275 274 274 274 274 274 274 274 275
320 322 324 323 321 319 317 311 302 293 282 270 261 252 239 230 227 225 220 217 218 220 217 215 214 214 216 221 226 229 231 232 233 235 238 239 238 238 240 244 246 248 250 252 253 255 257 258 259 260 262 264 266 267 269 270 271 272 273 273 274 274 274 275 276 276 277 277 278 278 278 278 278 278 277 277 277 276 276 275 275 274 274 274 274 275 275
326 329 332 331 328 328 328 324 316 305 288 266 248 235 225 220 217 214 209 208 210 211 209 206 205 204 205 209 216 222 226 228 231 236 239 240 240 242 247 251 253 254 254 255 255 256 257 258 259 261 263 265 266 268 270 271 272 273 273 274 275 275 276 277 278 279 279 280 280 280 281 281 281 280 280 279 279 278 277 276 276 275 274 274 273 271 270
332 336 339 339 336 338 341 343 341 334 317 255 212 205 203 200 198 197 198 199 201 199 196 194 196 199 201 206 213 220 224 226 229 233 237 240 241 244 248 251 252 253 253 254 255 256 258 259 261 263 265 267 268 270 271 271 272 273 274 276 277 279 280 280 281 282 283 284 284 284 284 283 282 281 280 280 279 278 277 276 275 274 271 269 267 265 263
338 342 346 346 347 352 359 5 13 27 57 104 136 157 170 177 181 185 186 185 183 181 180 182 189 196 199 202 207 213 219 223 228 234 239 241 241 242 243 246 248 249 250 252 254 256 259 261 264 266 268 269 269 270 271 272 274 276 277 279 280 281 282 284 285 286 286 286 285 284 283 281 280 280 279 279 278 277 276 275 273 270 267 264 263 262 261
344 348 352 355 0 8 14 20 29 42 64 92 112 128 144 155 161 165 166 166 166 169 173 179 187 195 199 201 205 211 218 225 232 237 240 240 239 240 242 245 248 251 253 255 257 260 262 264 265 266 267 267 268 270 273 275 277 279 280 281 283 284 286 287 288 287 286 285 283 282 281 281 280 280 279 279 278 277 275 273 271 269 266 264 263 262 262
351 355 358 3 13 22 28 32 39 50 66 90 110 121 130 137 142 147 153 157 160 167 175 183 190 198 205 209 213 219 225 231 235 237 237 238 240 243 247 250 253 255 257 258 259 261 262 263 264 266 268 270 272 275 277 278 280 281 283 284 286 288 288 288 287 286 285 284 284 284 283 283 282 281 280 279 277 276 274 273 271 269 267 265 264 264 264
Height
5803 5806 5809 5812 5816 5819 5822 5823 5825 5827 5830 5832 5835 5838 5841 5843 5845 5848 5850 5852 5855 5857 5859 5861 5864 5867 5869 5870 5871 5872 5873 5874 5876 5877 5879 5880 5882 5884 5886 5888 5889 5889 5891 5892 5894 5895 5896 5898 5900 5903 5906 5908 5909 5909 5910 5912 5914 5916 5917 5919 5920 5921 5923 5925 5927 5927 5928 5931 5933 5935 5938 5940 5941 5940 5940 5940 5941 5941 5943 5945 5948 5950 5952 5954 5955 5955 5955
5801 5804 5807 5810 5815 5818 5820 5822 5824 5826 5828 5831 5833 5836 5838 5840 5843 5845 5848 5850 5852 5854 5856 5859 5861 5864 5866 5868 5870 5870 5871 5872 5874 5875 5877 5878 5880 5882 5885 5886 5887 5887 5888 5890 5892 5893 5894 5896 5898 5900 5903 5904 5906 5907 5907 5909 5911 5913 5914 5916 5918 5919 5920 5922 5924 5925 5927 5929 5930 5932 5934 5937 5938 5938 5938 5937 5938 5939 5940 5942 5944 5946 5949 5951 5952 5953 5954
5799 5802 5806 5809 5814 5817 5818 5820 5822 5824 5826 5829 5831 5834 5836 5838 5841 5843 5846 5848 5850 5852 5854 5857 5859 5862 5864 5866 5867 5868 5869 5870 5872 5873 5875 5876 5877 5880 5882 5883 5885 5886 5887 5888 5890 5892 5893 5894 5896 5899 5901 5902 5903 5904 5905 5906 5907 5909 5911 5913 5915 5916 5917 5919 5921 5923 5925 5926 5928 5930 5931 5933 5935 5935 5934 5935 5936 5937 5938 5939 5941 5943 5945 5947 5949 5951 5952
5797 5800 5804 5808 5812 5815 5816 5817 5819 5822 5824 5826 5829 5831 5834 5836 5839 5841 5844 5847 5849 5851 5853 5856 5858 5860 5861 5863 5865 5866 5868 5869 5870 5872 5873 5874 5876 5877 5879 5881 5883 5884 5885 5886 5888 5889 5890 5892 5894 5896 5898 5899 5901 5902 5902 5903 5905 5906 5908 5910 5911 5913 5914 5916 5918 5920 5922 5924 5925 5927 5928 5930 5932 5932 5932 5933 5934 5935 5936 5937 5938 5939 5941 5943 5946 5948 5950
5796 5799 5802 5805 5809 5812 5813 5814 5817 5820 5822 5824 5827 5829 5832 5834 5837 5839 5842 5845 5847 5849 5852 5854 5856 5857 5858 5860 5863 5865 5867 5868 5869 5870 5871 5873 5874 5875 5877 5878 5880 5881 5882 5883 5885 5887 5888 5889 5891 5894 5895 5897 5899 5899 5899 5901 5903 5904 5906 5907 5908 5910 5911 5913 5915 5917 5919 5921 5922 5923 5925 5927 5928 5929 5930 5931 5932 5933 5934 5935 5936 5937 5938 5940 5942 5945 5947
5794 5798 5801 5804 5807 5809 5810 5812 5815 5817 5819 5821 5824 5827 5829 5832 5834 5837 5840 5842 5845 5848 5850 5852 5854 5854 5855 5857 5860 5863 5865 5867 5868 5869 5870 5871 5872 5873 5874 5876 5877 5879 5880 5881 5883 5884 5885 5887 5888 5891 5893 5894 5895 5895 5897 5899 5901 5902 5904 5905 5906 5907 5909 5911 5913 5914 5916 5917 5918 5919 5921 5922 5924 5925 5927 5928 5930 5931 5932 5934 5935 5935 5936 5937 5939 5941 5944
5791 5795 5798 5801 5803 5805 5807 5810 5813 5815 5817 5819 5822 5825 5827 5830 5832 5834 5837 5840 5842 5845 5847 5849 5851 5852 5853 5856 5858 5860 5862 5864 5866 5867 5868 5869 5870 5871 5871 5872 5874 5876 5878 5879 5880 5882 5883 5884 5886 5888 5890 5891 5892 5892 5894 5897 5899 5900 5902 5903 5904 5905 5906 5908 5910 5911 5912 5913 5914 5915 5916 5917 5919 5920 5923 5924 5926 5928 5930 5931 5932 5933 5933 5934 5936 5938 5940
5789 5793 5796 5798 5801 5803 5806 5808 5811 5813 5815 5818 5820 5822 5825 5827 5830 5832 5834 5836 5839 5841 5844 5845 5847 5849 5851 5853 5855 5857 5859 5862 5863 5865 5866 5867 5868 5868 5868 5869 5871 5873 5875 5877 5878 5880 5881 5883 5884 5885 5887 5888 5889 5890 5891 5894 5896 5898 5899 5901 5902 5902 5902 5903 5905 5908 5909 5911 5911 5912 5913 5914 5916 5917 5919 5921 5922 5923 5925 5926 5928 5929 5930 5930 5932 5934 5936
5789 5791 5793 5796 5799 5802 5804 5806 5808 5811 5813 5815 5817 5819 5821 5824 5827 5829 5831 5833 5836 5838 5840 5842 5844 5846 5849 5851 5852 5854 5856 5858 5860 5862 5863 5864 5865 5866 5866 5866 5868 5870 5872 5874 5876 5878 5879 5881 5882 5883 5885 5886 5887 5888 5888 5890 5892 5894 5895 5897 5898 5900 5900 5901 5902 5904 5906 5908 5908 5909 5910 5912 5913 5914 5916 5917 5918 5919 5920 5921 5922 5925 5926 5927 5928 5930 5932
5788 5789 5791 5795 5798 5800 5802 5804 5806 5808 5810 5812 5814 5816 5818 5821 5824 5826 5828 5829 5831 5833 5836 5838 5840 5843 5846 5848 5850 5851 5852 5854 5856 5858 5859 5860 5862 5863 5864 5864 5865 5867 5869 5871 5873 5875 5876 5878 5879 5881 5882 5884 5885 5886 5886 5887 5888 5890 5892 5893 5895 5897 5899 5899 5900 5902 5903 5905 5905 5905 5906 5909 5910 5911 5913 5914 5915 5916 5917 5918 5919 5921 5923 5924 5924 5924 5926
5786 5788 5790 5793 5796 5799 5801 5803 5804 5806 5807 5808 5811 5813 5815 5817 5820 5822 5824 5825 5827 5829 5832 5834 5836 5839 5842 5845 5847 5848 5849 5850 5851 5853 5854 5856 5857 5859 5860 5862 5863 5864 5866 5867 5869 5871 5873 5874 5876 5877 5878 5880 5881 5883 5884 5885 5886 5887 5888 5890 5892 5894 5896 5897 5898 5899 5901 5902 5903 5903 5904 5906 5908 5909 5910 5911 5912 5913 5914 5915 5916 5917 5919 5921 5920 5920 5920
5783 5786 5788 5791 5794 5797 5799 5801 5802 5803 5804 5805 5808 5809 5811 5814 5817 5818 5820 5821 5823 5826 5828 5831 5833 5835 5837 5840 5841 5843 5844 5845 5846 5847 5849 5851 5853 5854 5856 5858 5860 5861 5863 5864 5865 5866 5868 5870 5872 5873 5874 5875 5877 5879 5880 5882 5883 5883 5884 5886 5887 5890 5892 5893 5894 5895 5896 5898 5899 5901 5902 5903 5904 5905 5906 5908 5909 5910 5911 5912 5913 5914 5915 5916 5916 5916 5916
5781 5783 5785 5787 5790 5793 5795 5797 5798 5799 5801 5802 5804 5805 5808 5811 5813 5813 5815 5817 5819 5821 5824 5826 5828 5830 5831 5833 5835 5836 5838 5839 5840 5842 5843 5845 5847 5850 5852 5853 5855 5857 5858 5860 5861 5862 5863 5865 5867 5869 5870 5871 5873 5874 5876 5877 5879 5880 5881 5882 5884 5885 5887 5889 5890 5891 5892 5893 5894 5896 5898 5900 5901 5902 5902 5903 5905 5907 5907 5908 5908 5909 5910 5911 5912 5912 5912
5779 5780 5782 5784 5786 5788 5791 5792 5794 5795 5798 5799 5800 5802 5805 5807 5808 5809 5811 5813 5814 5816 5818 5820 5822 5824 5826 5828 5830 5831 5832 5834 5835 5837 5838 5839 5841 5843 5846 5848 5850 5851 5853 5854 5856 5858 5859 5861 5863 5864 5866 5867 5869 5870 5871 5873 5874 5876 5877 5879 5880 5881 5883 5884 5886 5887 5888 5889 5890 5891 5893 5895 5897 5898 5898 5899 5901 5902 5903 5904 5904 5904 5905 5905 5906 5907 5907
5778 5779 5780 5782 5783 5785 5787 5789 5790 5792 5794 5796 5798 5799 5801 5802 5803 5805 5807 5809 5810 5812 5813 5815 5817 5819 5821 5823 5825 5826 5827 5828 5830 5831 5832 5833 5834 5836 5839 5842 5844 5846 5847 5849 5851 5854 5856 5857 5858 5860 5861 5863 5864 5866 5867 5869 5870 5871 5872 5874 5876 5877 5878 5879 5881 5882 5884 5885 5886 5887 5888 5890 5892 5894 5895 5895 5896 5897 5899 5900 5900 5900 5900 5901 5902 5903 5904
5776 5777 5779 5780 5781 5783 5785 5786 5787 5789 5791 5793 5795 5797 5797 5798 5800 5802 5803 5805 5807 5808 5809 5810 5812 5814 5816 5817 5819 5821 5822 5823 5824 5826 5827 5828 5829 5830 5833 5836 5838 5840 5842 5844 5846 5849 5851 5852 5853 5854 5856 5857 5859 5861 5862 5864 5865 5866 5867 5869 5871 5872 5873 5874 5876 5877 5879 5880 5882 5883 5884 5885 5887 5889 5890 5891 5892 5892 5893 5894 5895 5896 5896 5897 5898 5898 5899
5774 5775 5777 5778 5779 5781 5782 5783 5784 5786 5787 5789 5791 5793 5794 5795 5796 5798 5799 5801 5802 5803 5804 5805 5806 5808 5810 5812 5814 5815 5816 5818 5820 5821 5823 5824 5825 5826 5828 5830 5832 5834 5836 5838 5840 5842 5844 5846 5847 5848 5850 5851 5853 5855 5857 5858 5860 5861 5862 5863 5865 5866 5868 5869 5871 5872 5874 5875 5877 5878 5879 5880 5881 5883 5884 5885 5886 5887 5888 5889 5890 5891 5891 5892 5893 5893 5894
5772 5773 5774 5776 5777 5778 5779 5780 5781 5782 5784 5785 5787 5789 5790 5791 5792 5794 5795 5796 5797 5798 5799 5800 5802 5803 5804 5806 5808 5809 5811 5813 5815 5817 5818 5819 5821 5822 5823 5824 5825 5827 5829 5832 5833 5835 5837 5839 5840 5842 5844 5845 5847 5849 5851 5853 5854 5855 5856 5858 5859 5860 5862 5863 5865 5866 5868 5869 5871 5873 5874 5875 5875 5877 5878 5879 5880 5881 5882 5883 5884 5885 5886 5887 5887 5888 5889
5770 5770 5771 5772 5774 5775 5776 5777 5778 5779 5780 5782 5784 5785 5787 5788 5789 5790 5791 5792 5792 5794 5795 5796 5798 5799 5800 5801 5802 5803 5806 5808 5809 5811 5812 5814 5816 5817 5817 5818 5819 5821 5823 5825 5826 5828 5830 5832 5834 5836 5838 5839 5841 5844 5846 5847 5848 5849 5851 5852 5853 5855 5856 5857 5859 5860 5861 5863 5864 5866 5868 5869 5870 5871 5872 5874 5875 5876 5877 5878 5879 5880 5880 5881 5882 5883 5884
5767 5767 5768 5769 5770 5771 5772 5773 5774 5775 5777 5778 5780 5781 5783 5784 5785 5786 5787 5787 5788 5789 5791 5792 5793 5795 5795 5796 5797 5799 5801 5803 5804 5806 5807 5809 5810 5811 5812 5813 5814 5816 5817 5819 5820 5821 5823 5825 5827 5829 5831 5833 5836 5838 5839 5840 5842 5843 5845 5846 5848 5849 5850 5852 5853 5855 5856 5857 5858 5859 5861 5862 5864 5866 5867 5868 5869 5870 5871 5873 5874 5874 5874 5875 5876 5877 5878
5764 5764 5765 5766 5766 5767 5768 5769 5770 5771 5773 5774 5775 5776 5778 5779 5780 5781 5782 5782 5783 5784 5786 5788 5789 5790 5791 5791 5793 5794 5796 5798 5800 5801 5802 5804 5805 5806 5807 5808 5810 5811 5812 5812 5813 5815 5816 5818 5821 5823 5825 5827 5829 5830 5832 5833 5834 5837 5838 5840 5842 5843 5844 5846 5847 5849 5851 5852 5852 5853 5854 5855 5856 5858 5860 5861 5862 5863 5865 5866 5867 5868 5868 5869 5870 5871 5872
5760 5761 5762 5763 5763 5764 5765 5766 5766 5767 5768 5769 5770 5771 5772 5773 5774 5776 5776 5777 5778 5779 5780 5782 5783 5785 5785 5786 5787 5788 5790 5792 5794 5796 5797 5798 5799 5801 5802 5804 5805 5806 5806 5807 5807 5808 5810 5812 5814 5816 5818 5820 5821 5823 5824 5826 5827 5829 5831 5832 5834 5836 5837 5839 5841 5843 5844 5846 5847 5848 5848 5848 5849 5850 5851 5853 5855 5856 5857 5859 5860 5861 5861 5862 5864 5865 5866
5757 5757 5758 5759 5759 5760 5761 5762 5762 5763 5764 5765 5765 5766 5767 5768 5769 5770 5771 5772 5773 5774 5775 5776 5778 5779 5779 5780 5781 5782 5784 5786 5788 5790 5792 5792 5794 5795 5797 5798 5799 5800 5801 5802 5802 5803 5804 5805 5807 5809 5811 5812 5813 5815 5817 5818 5820 5822 5823 5824 5826 5827 5829 5831 5833 5835 5837 5839 5840 5841 5842 5842 5842 5843 5844 5845 5847 5848 5850 5851 5852 5853 5854 5855 5856 5857 5858
5753 5753 5754 5754 5755 5755 5756 5757 5758 5759 5759 5760 5761 5761 5762 5762 5763 5764 5765 5766 5767 5768 5769 5771 5772 5773 5773 5774 5775 5776 5777 5780 5782 5784 5785 5786 5787 5789 5790 5791 5792 5794 5795 5795 5796 5797 5798 5800 5801 5803 5804 5805 5806 5808 5810 5811 5813 5814 5816 5816 5818 5819 5821 5823 5825 5827 5829 5830 5832 5833 5834 5835 5836 5836 5837 5838 5839 5840 5841 5843 5844 5845 5846 5847 5848 5849 5851
5749 5749 5749 5749 5749 5750 5750 5751 5752 5753 5754 5755 5756 5756 5757 5757 5758 5758 5759 5759 5760 5761 5762 5764 5765 5767 5767 5768 5769 5770 5771 5773 5775 5777 5778 5780 5781 5782 5783 5784 5786 5787 5788 5789 5789 5791 5792 5794 5795 5797 5798 5799 5800 5801 5803 5804 5806 5807 5809 5810 5811 5812 5813 5815 5817 5818 5820 5822 5823 5825 5826 5827 5828 5829 5830 5831 5832 5832 5833 5834 5835 5836 5837 5838 5840 5841 5842
5744 5744 5744 5744 5744 5744 5744 5745 5746 5747 5748 5748 5749 5750 5751 5751 5752 5753 5753 5753 5754 5754 5755 5757 5758 5759 5761 5762 5762 5764 5765 5767 5768 5769 5771 5773 5774 5775 5776 5777 5779 5781 5782 5782 5783 5785 5786 5788 5790 5791 5791 5792 5793 5795 5796 5797 5799 5800 5802 5803 5804 5805 5806 5808 5809 5810 5811 5813 5814 5816 5817 5819 5820 5822 5823 5823 5824 5825 5826 5826 5827 5828 5829 5830 5830 5832 5833
5738 5738 5738 5738 5738 5738 5738 5739 5739 5740 5740 5741 5742 5743 5744 5744 5745 5746 5747 5748 5748 5748 5749 5750 5750 5751 5753 5755 5756 5757 5759 5760 5761 5762 5764 5765 5766 5767 5768 5770 5771 5773 5774 5776 5777 5779 5780 5782 5783 5784 5785 5785 5787 5788 5790 5791 5792 5793 5794 5796 5797 5798 5799 5801 5802 5802 5803 5804 5806 5807 5808 5810 5812 5813 5814 5815 5816 5817 5818 5819 5819 5819 5820 5820 5821 5822 5824
5733 5733 5733 5732 5732 5732 5732 5732 5732 5733 5733 5734 5734 5735 5736 5737 5738 5739 5740 5741 5742 5742 5743 5743 5744 5744 5746 5748 5749 5750 5752 5753 5754 5755 5756 5757 5758 5759 5760 5762 5763 5765 5767 5768 5770 5771 5773 5775 5776 5777 5778 5779 5780 5781 5783 5784 5785 5786 5787 5788 5790 5791 5792 5793 5794 5795 5796 5797 5798 5799 5800 5801 5803 5804 5806 5807 5808 5809 5810 5811 5812 5812 5812 5812 5812 5813 5814
5727 5727 5727 5727 5726 5726 5725 5725 5725 5726 5726 5726 5727 5727 5728 5729 5730 5731 5732 5733 5734 5734 5735 5736 5736 5737 5739 5740 5741 5743 5744 5746 5747 5748 5748 5750 5751 5752 5753 5754 5755 5757 5758 5760 5762 5764 5766 5767 5769 5769 5770 5771 5773 5775 5776 5776 5778 5779 5780 5781 5782 5783 5784 5785 5787 5788 5788 5789 5790 5791 5792 5793 5794 5796 5797 5798 5799 5800 5801 5802 5803 5804 5804 5804 5804 5804 5804
5721 5721 5720 5720 5720 5720 5719 5719 5718 5718 5718 5718 5719 5720 5720 5720 5721 5722 5723 5724 5725 5726 5727 5728 5728 5729 5731 5733 5734 5736 5737 5738 5739 5740 5741 5743 5744 5745 5746 5747 5748 5749 5750 5752 5754 5756 5758 5760 5761 5761 5762 5764 5766 5767 5768 5769 5770 5771 5772 5773 5774 5775 5776 5777 5779 5780 5780 5781 5781 5782 5784 5785 5786 5787 5788 5789 5790 5791 5792 5793 5794 5795 5795 5795 5795 5795 5795
5715 5714 5714 5713 5713 5713 5712 5712 5712 5711 5711 5711 5711 5712 5712 5712 5713 5713 5714 5715 5716 5717 5718 5719 5720 5722 5723 5724 5726 5727 5729 5730 5732 5733 5734 5736 5737 5739 5740 5740 5740 5741 5742 5744 5746 5748 5750 5752 5753 5753 5755 5756 5758 5759 5760 5762 5763 5764 5765 5766 5767 5767 5768 5769 5770 5771 5772 5773 5773 5774 5775 5776 5777 5778 5779 5780 5781 5782 5783 5784 5785 5785 5786 5786 5786 5785 5785
5708 5708 5707 5706 5706 5705 5705 5704 5704 5704 5703 5703 5704 5703 5703 5704 5705 5705 5705 5706 5707 5708 5709 5710 5712 5713 5714 5715 5717 5718 5720 5723 5725 5726 5728 5730 5731 5732 5732 5732 5732 5733 5734 5736 5738 5740 5742 5743 5744 5745 5747 5748 5750 5751 5752 5754 5756 5757 5758 5759 5759 5759 5760 5760 5762 5763 5763 5764 5765 5766 5767 5768 5768 5769 5770 5771 5772 5773 5774 5775 5776 5776 5776 5776 5776 5775 5775
5702 5701 5700 5699 5698 5698 5697 5696 5696 5696 5696 5695 5695 5695 5695 5695 5696 5697 5697 5697 5698 5699 5700 5701 5702 5703 5705 5706 5708 5710 5712 5714 5717 5719 5722 5723 5724 5724 5724 5724 5725 5726 5727 5729 5731 5733 5734 5735 5736 5737 5738 5740 5741 5743 5745 5747 5748 5749 5750 5751 5751 5751 5751 5751 5753 5754 5754 5755 5756 5757 5758 5758 5759 5760 5761 5762 5763 5764 5765 5766 5766 5767 5767 5767 5766 5766 5765
5695 5694 5692 5691 5690 5690 5689 5689 5688 5688 5688 5687 5687 5687 5687 5687 5687 5688 5688 5689 5690 5691 5692 5692 5693 5695 5697 5698 5700 5701 5704 5706 5709 5711 5713 5714 5715 5715 5716 5717 5717 5719 5720 5722 5723 5725 5726 5727 5728 5729 5730 5731 5733 5735 5737 5738 5740 5741 5742 5742 5742 5742 5742 5743 5744 5745 5746 5746 5747 5748 5748 5749 5750 5751 5751 5752 5754 5754 5755 5755 5756 5756 5757 5757 5756 5756 5755
5687 5685 5684 5683 5682 5681 5680 5680 5679 5679 5679 5679 5679 5679 5678 5678 5678 5679 5680 5681 5682 5683 5683 5684 5685 5687 5689 5690 5692 5694 5696 5698 5700 5702 5703 5705 5706 5707 5708 5708 5709 5711 5713 5714 5716 5717 5718 5720 5721 5722 5722 5723 5725 5727 5728 5729 5730 5731 5732 5733 5733 5733 5734 5735 5736 5737 5738 5738 5738 5739 5739 5740 5740 5741 5742 5743 5743 5744 5744 5745 5745 5746 5746 5746 5746 5745 5745
5677 5676 5675 5673 5672 5671 5670 5669 5669 5669 5669 5669 5669 5670 5670 5670 5670 5671 5671 5672 5673 5674 5675 5676 5678 5680 5682 5683 5685 5687 5688 5690 5692 5694 5695 5696 5698 5700 5701 5701 5702 5704 5705 5707 5709 5710 5711 5712 5713 5714 5715 5716 5718 5719 5720 5720 5721 5722 5723 5724 5724 5725 5726 5727 5728 5728 5729 5729 5730 5730 5730 5730 5731 5731 5732 5732 5733 5733 5734 5734 5734 5735 5735 5735 5735 5735 5734
5668 5666 5665 5664 5662 5661 5660 5659 5658 5658 5658 5659 5659 5660 5660 5660 5661 5662 5663 5664 5665 5666 5667 5668 5670 5673 5674 5676 5677 5679 5681 5683 5685 5686 5687 5689 5690 5692 5693 5694 5695 5697 5698 5699 5701 5703 5704 5705 5706 5707 5708 5710 5710 5711 5711 5712 5713 5714 5715 5716 5716 5717 5718 5718 5718 5719 5719 5720 5720 5721 5721 5721 5721 5721 5721 5722 5722 5722 5722 5723 5723 5723 5723 5723 5723 5723 5723
5659 5657 5656 5654 5652 5651 5650 5648 5647 5647 5647 5648 5648 5649 5649 5650 5650 5651 5653 5656 5657 5658 5659 5661 5663 5665 5667 5669 5671 5673 5674 5676 5678 5679 5681 5682 5684 5685 5686 5687 5688 5689 5691 5693 5694 5696 5697 5698 5700 5701 5702 5702 5703 5703 5704 5704 5706 5707 5707 5708 5709 5710 5710 5710 5710 5710 5711 5711 5711 5711 5712 5712 5712 5712 5711 5711 5711 5711 5711 5712 5712 5712 5711 5711 5711 5711 5711
5651 5649 5646 5644 5642 5641 5639 5638 5636 5635 5635 5636 5636 5637 5638 5639 5639 5640 5643 5646 5648 5650 5651 5653 5656 5658 5660 5663 5664 5666 5668 5670 5671 5673 5674 5676 5678 5679 5680 5680 5681 5682 5684 5687 5688 5690 5691 5692 5694 5695 5695 5695 5696 5696 5697 5697 5698 5699 5700 5701 5702 5702 5702 5702 5702 5702 5702 5703 5702 5703 5703 5703 5703 5702 5702 5702 5701 5701 5701 5701 5701 5700 5700 5700 5699 5699 5698
5643 5640 5638 5636 5634 5632 5630 5628 5627 5625 5624 5624 5625 5626 5627 5627 5628 5629 5633 5636 5639 5641 5643 5646 5649 5651 5654 5657 5658 5660 5662 5663 5665 5666 5668 5670 5671 5673 5673 5673 5674 5676 5679 5681 5682 5684 5685 5687 5688 5688 5688 5689 5689 5690 5690 5691 5692 5693 5693 5694 5695 5695 5695 5695 5695 5695 5695 5695 5695 5694 5694 5694 5693 5693 5693 5693 5692 5692 5691 5691 5690 5689 5689 5688 5688 5687 5686
5635 5633 5631 5628 5626 5623 5620 5618 5616 5614 5613 5612 5613 5614 5616 5617 5617 5619 5622 5625 5628 5631 5635 5639 5642 5645 5648 5650 5653 5654 5656 5657 5659 5660 5662 5664 5665 5667 5667 5667 5669 5671 5673 5675 5676 5678 5680 5681 5682 5682 5683 5683 5684 5684 5685 5685 5686 5686 5687 5687 5688 5688 5688 5688 5688 5688 5688 5687 5687 5686 5686 5685 5685 5684 5684 5683 5683 5682 5682 5681 5680 5679 5678 5677 5677 5676 5676
5628 5626 5623 5620 5616 5613 5609 5606 5604 5603 5602 5601 5601 5602 5604 5605 5607 5610 5612 5615 5618 5622 5627 5632 5635 5638 5641 5644 5647 5649 5650 5652 5653 5655 5657 5658 5659 5661 5662 5663 5664 5666 5668 5669 5670 5672 5674 5676 5676 5677 5677 5678 5678 5679 5679 5679 5680 5680 5680 5681 5681 5681 5681 5680 5680 5680 5680 5680 5679 5678 5678 5677 5677 5676 5675 5674 5673 5673 5672 5671 5670 5669 5668 5667 5666 5665 5664
5622 5619 5616 5612 5608 5604 5600 5597 5594 5592 5591 5590 5590 5590 5591 5594 5597 5600 5603 5606 5609 5614 5619 5624 5629 5632 5635 5638 5641 5644 5645 5647 5649 5651 5652 5653 5654 5656 5657 5658 5659 5661 5662 5664 5666 5667 5669 5670 5671 5672 5672 5672 5673 5673 5673 5673 5674 5674 5674 5674 5674 5674 5674 5673 5673 5673 5672 5672 5671 5670 5669 5669 5668 5667 5666 5665 5664 5663 5662 5661 5660 5659 5658 5657 5656 5655 5653
5616 5613 5609 5605 5601 5597 5592 5589 5585 5583 5581 5580 5580 5580 5582 5584 5587 5591 5594 5598 5602 5606 5611 5616 5621 5626 5630 5634 5637 5639 5641 5643 5645 5647 5648 5648 5649 5650 5652 5653 5654 5655 5657 5659 5660 5662 5664 5665 5666 5666 5667 5667 5667 5667 5668 5668 5668 5668 5668 5668 5667 5667 5667 5666 5666 5665 5664 5664 5663 5662 5661 5660 5659 5658 5657 5656 5655 5653 5652 5651 5650 5648 5647 5647 5645 5644 5642
5611 5607 5603 5598 5594 5589 5584 5580 5576 5573 5571 5570 5570 5571 5572 5575 5578 5581 5586 5591 5595 5599 5603 5609 5615 5620 5625 5629 5632 5635 5637 5639 5641 5642 5642 5642 5643 5644 5646 5647 5648 5650 5651 5653 5655 5657 5658 5659 5660 5661 5661 5662 5662 5662 5662 5662 5662 5661 5661 5661 5660 5660 5659 5658 5658 5657 5656 5655 5654 5653 5652 5651 5650 5649 5648 5647 5645 5644 5642 5641 5639 5638 5637 5636 5634 5632 5631
5606 5602 5597 5592 5587 5581 5576 5571 5567 5564 5562 5561 5561 5561 5563 5566 5570 5574 5578 5584 5589 5593 5598 5603 5609 5615 5620 5624 5628 5630 5632 5634 5636 5636 5636 5637 5638 5640 5642 5643 5644 5645 5647 5648 5650 5652 5653 5654 5655 5655 5656 5656 5656 5656 5656 5656 5655 5654 5654 5653 5653 5652 5652 5651 5650 5649 5649 5648 5647 5645 5644 5643 5641 5639 5638 5636 5635 5633 5631 5630 5628 5627 5626 5624 5622 5621 5620
5602 5597 5592 5587 5581 5576 5570 5564 5559 5556 5553 5553 5553 5554 5556 5560 5564 5568 5573 5578 5583 5588 5593 5598 5604 5610 5616 5620 5623 5626 5628 5629 5631 5632 5633 5634 5635 5636 5638 5639 5640 5641 5643 5645 5646 5647 5648 5649 5650 5650 5650 5650 5650 5650 5650 5649 5649 5648 5647 5647 5646 5645 5645 5644 5643 5642 5641 5640 5638 5637 5635 5633 5631 5629 5626 5624 5622 5620 5619 5617 5616 5615 5614 5613 5611 5610 5610
5598 5594 5588 5583 5577 5572 5565 5559 5554 5550 5548 5547 5548 5550 5553 5557 5561 5565 5569 5575 5580 5584 5589 5595 5602 5607 5612 5616 5619 5622 5623 5625 5627 5628 5629 5631 5632 5633 5634 5635 5636 5638 5639 5640 5641 5642 5643 5644 5644 5644 5644 5644 5644 5644 5643 5643 5642 5642 5641 5640 5640 5639 5638 5637 5636 5634 5632 5631 5629 5626 5624 5621 5619 5616 5614 5612 5610 5608 5607 5605 5604 5604 5603 5602 5601 5601 5601
5596 5592 5586 5581 5575 5570 5564 5558 5553 5549 5547 5547 5548 5550 5553 5556 5560 5563 5568 5573 5578 5583 5588 5594 5600 5605 5609 5613 5616 5618 5619 5620 5622 5624 5626 5627 5629 5629 5630 5631 5632 5634 5635 5636 5636 5637 5638 5638 5638 5638 5638 5638 5638 5638 5638 5637 5637 5636 5635 5634 5633 5631 5630 5629 5627 5625 5623 5620 5618 5615 5613 5610 5608 5605 5603 5601 5600 5598 5596 5595 5594 5594 5594 5593 5593 5593 5593
5595 5591 5586 5581 5575 5570 5565 5560 5555 5553 5551 5551 5552 5554 5556 5558 5561 5565 5569 5573 5578 5583 5588 5594 5599 5603 5607 5609 5611 5613 5614 5617 5619 5621 5623 5624 5625 5626 5627 5628 5629 5630 5631 5632 5632 5632 5633 5633 5633 5633 5633 5633 5633 5633 5633 5632 5631 5630 5629 5627 5625 5623 5621 5620 5618 5615 5613 5610 5608 5605 5603 5600 5598 5596 5595 5593 5591 5590 5589 5588 5587 5587 5586 5586 5587 5587 5587
5595 5591 5587 5582 5578 5573 5568 5564 5561 5558 5557 5556 5557 5558 5560 5562 5564 5568 5571 5576 5580 5585 5590 5594 5598 5602 5604 5607 5609 5610 5612 5615 5617 5618 5620 5621 5622 5623 5624 5625 5626 5626 5627 5627 5628 5628 5628 5628 5628 5628 5628 5628 5628 5628 5627 5626 5625 5623 5621 5619 5617 5615 5613 5611 5609 5606 5604 5601 5599 5597 5595 5593 5591 5589 5587 5586 5584 5583 5582 5581 5581 5581 5581 5581 5581 5581 5582
5595 5592 5588 5585 5581 5577 5573 5570 5567 5565 5564 5563 5563 5564 5566 5568 5570 5573 5576 5580 5584 5588 5592 5595 5598 5601 5603 5605 5607 5609 5611 5613 5615 5616 5617 5619 5619 5620 5621 5621 5622 5622 5623 5623 5623 5623 5623 5623 5623 5623 5623 5623 5623 5622 5621 5620 5618 5615 5613 5611 5609 5607 5604 5602 5600 5598 5595 5593 5591 5589 5588 5586 5584 5583 5581 5580 5579 5578 5577 5576 5576 5576 5576 5576 5576 5576 5576